(362300) = 2002 JS93 = 2009 SU290

Discovered at Kitt Peak on 2009-09-25 by Spacewatch.

Orbit

Orbit type: Main Belt

Note: WebGL enabled browser required.

epoch2024-03-31.0
epoch JD2460400.5
perihelion date2019-05-26.02781
perihelion JD2458629.52781
argument of perihelion (°)220.94080
ascending node (°)47.26516
inclination (°)14.19113
eccentricity0.1956001
perihelion distance (AU)2.5286018
Tisserand w.r.t. Jupiter3.1
ΔV w.r.t. Earth (km/sec)10.9
semimajor axis (AU)3.1434637
mean anomaly (°)313.18641
mean daily motion (°/day)0.17684430
aphelion distance (AU)3.758
period (years)5.57
P-vector [x]-0.04599457
P-vector [y]-0.84068061
P-vector [z]-0.53957447
Q-vector [x]0.98257816
Q-vector [y]0.05929270
Q-vector [z]-0.17613784
absolute magnitude16.02
phase slope0.15
uncertainty0
referenceMPEC 2024-F50
observations used175
oppositions14
arc length (days)7983
first opposition used2002
last opposition used2024
residual rms (arc-secs)0.79
perturbers coarse indicatorM-v
perturbers precise indicator003Ek
first observation date used2002-05-11.0
last observation date used2024-03-19.0
computer nameMPCLINUX
JD of orbit computation2456909.291620
perihelion JD uncertainty (days)2.1456E-04
argument of perihelion uncertainty (°)5.0090E-05
ascending node uncertainty (°)3.0627E-05
inclination uncertainty (°)1.7491E-05
eccentricity uncertainty 1.1235E-07
perihelion distance uncertainty (AU)3.6575E-07
Minimum Orbit Intersection Distances (in AU)
for orbit epoch: 2460400.5, reference: E2024-GB3
Mercury2.06507
Venus1.81288
Earth1.53202
Mars1.05339
Jupiter1.398
Saturn5.37825
Uranus15.13
Neptune26.2128

Observations

176 total observations over interval: 2002 05 11.29617 – 2024 03 19.603404
These data are available for download (format description).

Date (UT) J2000 RA J2000 Dec Magn Location Ref
2002 05 11.29617 15 30 41.07 -21 38 57.0 19.0   704 – Lincoln Laboratory ETS, New Mexico MPS 55460
2002 05 11.31073 15 30 40.22 -21 38 58.7 19.2   704 – Lincoln Laboratory ETS, New Mexico MPS 55460
2002 05 11.33991 15 30 38.42 -21 39 03.7 19.9   704 – Lincoln Laboratory ETS, New Mexico MPS 55460
2002 05 11.35452 15 30 37.59 -21 39 05.8 19.5   704 – Lincoln Laboratory ETS, New Mexico MPS 55460
2002 05 13.29271 15 28 43.82 -21 44 48.7 19.2   704 – Lincoln Laboratory ETS, New Mexico MPS 55460
2002 05 13.30742 15 28 42.94 -21 44 51.1 19.4   704 – Lincoln Laboratory ETS, New Mexico MPS 55460
2002 05 13.32213 15 28 42.00 -21 44 53.7 19.2   704 – Lincoln Laboratory ETS, New Mexico MPS 55460
2002 05 13.33688 15 28 41.12 -21 44 57.3 19.4   704 – Lincoln Laboratory ETS, New Mexico MPS 55460
2002 05 13.35161 15 28 40.15 -21 45 00.3 19.6   704 – Lincoln Laboratory ETS, New Mexico MPS 55460
2002 05 14.22645 15 27 48.86 -21 47 27.1 18.9   704 – Lincoln Laboratory ETS, New Mexico MPS 55460
2002 05 14.24159 15 27 47.89 -21 47 29.7 19.5   704 – Lincoln Laboratory ETS, New Mexico MPS 55460
2002 05 14.25668 15 27 46.90 -21 47 32.9 17.1   704 – Lincoln Laboratory ETS, New Mexico MPS 55460
2002 05 14.27178 15 27 46.05 -21 47 35.4 19.3   704 – Lincoln Laboratory ETS, New Mexico MPS 55460
2002 05 14.28686 15 27 45.19 -21 47 39.8 19.8   704 – Lincoln Laboratory ETS, New Mexico MPS 55460
2002 05 17.29925 15 24 46.06 -21 55 55.0 18.6   704 – Lincoln Laboratory ETS, New Mexico MPS 55460
2002 05 17.31438 15 24 45.10 -21 55 59.1 19.5   704 – Lincoln Laboratory ETS, New Mexico MPS 55460
2002 05 17.32954 15 24 44.24 -21 56 00.4 19.4   704 – Lincoln Laboratory ETS, New Mexico MPS 55460
2002 05 17.34474 15 24 43.30 -21 56 02.5 19.1   704 – Lincoln Laboratory ETS, New Mexico MPS 55460
2004 11 11.23730 04 03 42.59 +25 05 03.2 21.4 V 691 – Steward Observatory, Kitt Peak-Spacewatch MPS 300833
2004 11 11.26765 04 03 41.01 +25 05 04.1 21.3 V 691 – Steward Observatory, Kitt Peak-Spacewatch MPS 300833
2004 11 11.30134 04 03 39.22 +25 05 05.6 21.3 V 691 – Steward Observatory, Kitt Peak-Spacewatch MPS 300833
2007 03 16.28844 12 20 17.44 +15 29 30.5 20.7 V 703 – Catalina Sky Survey MPS 300833
2007 03 16.29487 12 20 17.05 +15 29 32.1 20.6 V 703 – Catalina Sky Survey MPS 300833
2007 03 16.30132 12 20 16.87 +15 29 34.5 20.0 V 703 – Catalina Sky Survey MPS 300833
2007 03 16.30775 12 20 16.44 +15 29 34.6 20.2 V 703 – Catalina Sky Survey MPS 300833
2008 07 31.45951 19 36 36.97 -43 07 32.9 19.4 V E12 – Siding Spring Survey MPS 300833
2008 07 31.46479 19 36 36.68 -43 07 32.5 19.5 V E12 – Siding Spring Survey MPS 300833
2008 07 31.47005 19 36 36.43 -43 07 33.9 19.9 V E12 – Siding Spring Survey MPS 300833
2009 09 25.41603 02 18 03.98 +05 47 24.5 20.9 V 691 – Steward Observatory, Kitt Peak-Spacewatch MPS 297954
2009 09 25.43372 02 18 03.32 +05 47 23.0 20.7 V 691 – Steward Observatory, Kitt Peak-Spacewatch MPS 297954
2009 09 25.45140 02 18 02.64 +05 47 21.6 20.9 V 691 – Steward Observatory, Kitt Peak-Spacewatch MPS 297954
2009 09 29.40206 02 15 30.66 +05 41 26.1 20.4 V 691 – Steward Observatory, Kitt Peak-Spacewatch MPS 297954
2009 09 29.41966 02 15 29.93 +05 41 24.2 20.4 V 691 – Steward Observatory, Kitt Peak-Spacewatch MPS 297954
2009 09 29.43727 02 15 29.20 +05 41 22.7 20.6 V 691 – Steward Observatory, Kitt Peak-Spacewatch MPS 297954
2009 10 17.36008 02 01 28.48 +05 11 45.5 20.2 V G96 – Mt. Lemmon Survey MPS 300833
2009 10 17.36579 02 01 28.20 +05 11 45.1 20.1 V G96 – Mt. Lemmon Survey MPS 300833
2009 10 17.37155 02 01 27.87 +05 11 44.7 20.6 V G96 – Mt. Lemmon Survey MPS 300833
2009 10 17.37728 02 01 27.62 +05 11 43.9 20.1 V G96 – Mt. Lemmon Survey MPS 300833
2009 10 17.44058 02 01 24.24 +05 11 38.5 20.2 V G96 – Mt. Lemmon Survey MPS 300833
2009 10 17.44191 02 01 24.16 +05 11 37.9 20.5 V G96 – Mt. Lemmon Survey MPS 300833
2009 10 17.44635 02 01 23.95 +05 11 37.6 20.3 V G96 – Mt. Lemmon Survey MPS 300833
2009 10 17.44767 02 01 23.84 +05 11 37.4 20.4 V G96 – Mt. Lemmon Survey MPS 300833
2009 10 17.45208 02 01 23.66 +05 11 36.8 20.4 V G96 – Mt. Lemmon Survey MPS 300833
2009 10 17.45338 02 01 23.55 +05 11 36.7 20.2 V G96 – Mt. Lemmon Survey MPS 300833
2009 10 17.45781 02 01 23.34 +05 11 36.2 20.5 V G96 – Mt. Lemmon Survey MPS 300833
2009 10 24.35597 01 55 26.97 +05 01 32.5 20.5 V G96 – Mt. Lemmon Survey MPS 300833
2009 10 24.36353 01 55 26.54 +05 01 32.2 20.9 V G96 – Mt. Lemmon Survey MPS 300833
2009 10 24.37102 01 55 26.14 +05 01 31.4 21.0 V G96 – Mt. Lemmon Survey MPS 300833
2009 11 19.10594 01 35 56.60 +04 51 04.7 21.6 V 691 – Steward Observatory, Kitt Peak-Spacewatch MPS 303421
2009 11 19.11678 01 35 56.21 +04 51 05.4 21.3 V 691 – Steward Observatory, Kitt Peak-Spacewatch MPS 303421
2009 11 19.12763 01 35 55.82 +04 51 06.1 20.9 V 691 – Steward Observatory, Kitt Peak-Spacewatch MPS 303421
2012 02 15.47268 09 40 01.645 +34 47 00.31 20.9 r F51 – Pan-STARRS 1, Haleakala MPS 411615
2012 02 15.48444 09 40 00.975 +34 47 02.58 21.0 r F51 – Pan-STARRS 1, Haleakala MPS 411615
2013 01 17.62581 14 29 54.325 -07 12 08.21 21.4 w F51 – Pan-STARRS 1, Haleakala MPS 451010
2013 01 17.63118 14 29 54.646 -07 12 10.03 21.3 w F51 – Pan-STARRS 1, Haleakala MPS 451010
2013 01 17.63658 14 29 54.950 -07 12 11.95 21.4 w F51 – Pan-STARRS 1, Haleakala MPS 451010
2013 04 13.46960 14 49 03.171 -11 40 51.51 19.5 w F51 – Pan-STARRS 1, Haleakala MPS 464091
2013 04 13.48349 14 49 02.510 -11 40 52.53 19.6 w F51 – Pan-STARRS 1, Haleakala MPS 464091
2013 04 13.49739 14 49 01.851 -11 40 53.60 19.5 w F51 – Pan-STARRS 1, Haleakala MPS 464091
2013 04 30.63793 14 33 59.87 -12 01 07.5 20.0 R D29 – Purple Mountain Observatory, XuYi Station MPS 466830
2013 04 30.65481 14 33 58.85 -12 01 09.2 20.0 R D29 – Purple Mountain Observatory, XuYi Station MPS 466830
2013 04 30.67169 14 33 57.83 -12 01 09.8 20.5 R D29 – Purple Mountain Observatory, XuYi Station MPS 466830
2013 05 04.24053 14 30 34.20 -12 05 42.4 19.7 V G96 – Mt. Lemmon Survey MPS 466830
2013 05 04.24424 14 30 33.94 -12 05 42.9 19.8 V G96 – Mt. Lemmon Survey MPS 466830
2013 05 04.24794 14 30 33.73 -12 05 43.0 20.6 V G96 – Mt. Lemmon Survey MPS 466830
2013 05 04.25157 14 30 33.55 -12 05 43.8 21.1 V G96 – Mt. Lemmon Survey MPS 466830
2013 05 09.40174 14 25 41.778 -12 12 53.96 19.6 w F51 – Pan-STARRS 1, Haleakala MPS 467458
2013 05 09.41572 14 25 40.968 -12 12 55.20 19.6 w F51 – Pan-STARRS 1, Haleakala MPS 467458
2013 05 09.44367 14 25 39.351 -12 12 57.66 19.6 w F51 – Pan-STARRS 1, Haleakala MPS 467458
2013 05 30.21631 14 09 14.25 -12 55 52.7 19.3 V G96 – Mt. Lemmon Survey MPS 469104
2013 05 30.22181 14 09 14.04 -12 55 53.3 19.5 V G96 – Mt. Lemmon Survey MPS 469104
2013 05 30.22707 14 09 13.82 -12 55 54.3 19.7 V G96 – Mt. Lemmon Survey MPS 469104
2013 05 30.23237 14 09 13.68 -12 55 55.1 19.3 V G96 – Mt. Lemmon Survey MPS 469104
2013 06 04.24323 14 06 32.68 -13 10 49.6 20.0 V G96 – Mt. Lemmon Survey MPS 469861
2013 06 04.24857 14 06 32.54 -13 10 50.7 19.8 V G96 – Mt. Lemmon Survey MPS 469861
2013 06 04.25380 14 06 32.40 -13 10 51.2 19.9 V G96 – Mt. Lemmon Survey MPS 469861
2013 06 04.25909 14 06 32.22 -13 10 52.5 20.3 V G96 – Mt. Lemmon Survey MPS 469861
2014 08 26.47349 23 44 17.750 -23 15 36.04 20.3 w F51 – Pan-STARRS 1, Haleakala MPS 529645
2014 08 26.48470 23 44 17.209 -23 15 38.94 20.3 w F51 – Pan-STARRS 1, Haleakala MPS 529645
2014 08 26.49591 23 44 16.666 -23 15 41.78 20.3 w F51 – Pan-STARRS 1, Haleakala MPS 529645
2014 08 26.50713 23 44 16.127 -23 15 44.86 20.3 w F51 – Pan-STARRS 1, Haleakala MPS 529645
2014 09 06.30323 23 35 13.95 -23 55 32.5 19.9 V G96 – Mt. Lemmon Survey MPS 531385
2014 09 06.30584 23 35 13.75 -23 55 32.7 20.1 V G96 – Mt. Lemmon Survey MPS 531385
2014 09 06.30842 23 35 13.64 -23 55 33.1 20.0 V G96 – Mt. Lemmon Survey MPS 531385
2014 09 06.31100 23 35 13.45 -23 55 34.0 20.4 V G96 – Mt. Lemmon Survey MPS 531385
2014 11 22.25258 23 06 46.606 -18 42 52.67 21.3 w F51 – Pan-STARRS 1, Haleakala MPS 549517
2014 11 22.26487 23 06 46.892 -18 42 45.81 21.1 w F51 – Pan-STARRS 1, Haleakala MPS 549517
2015 09 09.53662 03 57 22.577 +19 51 58.70 21.8 w F51 – Pan-STARRS 1, Haleakala MPS 626626
